Time,TemperatureF,DewpointF,PressureIn,WindDirection,WindDirectionDegrees,WindSpeedMPH,WindSpeedGustMPH,Humidity,HourlyPrecipIn,Conditions,Clouds,dailyrainin,SoftwareType,DateUTC
2013-03-16 00:01:00,53.4,16.5,29.64,ENE,68,0.0,0.0,23,0.00,CLR,,0.00,WeatherDisplay:10.37,2013-03-16 06:01:00,
2013-03-16 00:06:00,53.2,16.3,29.64,ENE,68,0.0,0.0,23,0.00,CLR,,0.00,WeatherDisplay:10.37,2013-03-16 06:06:00,
2013-03-16 00:11:00,53.1,16.2,29.64,ENE,68,0.5,0.5,23,0.00,CLR,,0.00,WeatherDisplay:10.37,2013-03-16 06:11:00,
2013-03-16 00:16:00,52.9,16.0,29.63,East,90,1.8,1.8,23,0.00,CLR,,0.00,WeatherDisplay:10.37,2013-03-16 06:16:00,
2013-03-16 00:21:00,52.7,15.9,29.63,East,90,2.3,2.3,23,0.00,CLR,,0.00,WeatherDisplay:10.37,2013-03-16 06:21:00,
2013-03-16 00:27:00,52.9,17.0,29.63,East,90,1.2,1.2,24,0.00,CLR,,0.00,WeatherDisplay:10.37,2013-03-16 06:27:00,
2013-03-16 00:32:00,52.9,17.0,29.63,East,90,1.2,1.2,24,0.00,CLR,,0.00,WeatherDisplay:10.37,2013-03-16 06:32:00,
2013-03-16 00:37:00,52.9,16.0,29.63,East,90,1.2,1.2,23,0.00,CLR,,0.00,WeatherDisplay:10.37,2013-03-16 06:37:00,
2013-03-16 00:42:00,52.7,15.9,29.63,East,90,0.0,0.0,23,0.00,CLR,,0.00,WeatherDisplay:10.37,2013-03-16 06:42:00,
2013-03-16 00:47:00,52.7,15.9,29.63,East,90,0.0,0.0,23,0.00,CLR,,0.00,WeatherDisplay:10.37,2013-03-16 06:47:00,
2013-03-16 00:52:00,52.5,15.7,29.63,NNW,338,0.5,0.5,23,0.00,CLR,,0.00,WeatherDisplay:10.37,2013-03-16 06:52:00,
2013-03-16 00:57:00,52.3,15.6,29.63,NNE,22,0.0,0.0,23,0.00,CLR,,0.00,WeatherDisplay:10.37,2013-03-16 06:57:00,
2013-03-16 01:02:00,52.2,15.4,29.63,NNW,338,0.0,0.0,23,0.00,CLR,,0.00,WeatherDisplay:10.37,2013-03-16 07:02:00,
2013-03-16 01:07:00,52.0,15.3,29.63,NNE,22,1.2,1.2,23,0.00,CLR,,0.00,WeatherDisplay:10.37,2013-03-16 07:07:00,
2013-03-16 01:12:00,51.6,15.0,29.64,NNE,22,0.0,0.0,23,0.00,CLR,,0.00,WeatherDisplay:10.37,2013-03-16 07:12:00,
2013-03-16 01:17:00,51.3,15.6,29.63,NNE,22,0.0,0.0,24,0.00,CLR,,0.00,WeatherDisplay:10.37,2013-03-16 07:17:00,
2013-03-16 01:22:00,50.9,15.3,29.64,ENE,68,0.0,0.0,24,0.00,CLR,,0.00,WeatherDisplay:10.37,2013-03-16 07:22:00,
2013-03-16 01:27:00,50.5,15.0,29.64,NE,45,0.0,0.0,24,0.00,CLR,,0.00,WeatherDisplay:10.37,2013-03-16 07:27:00,
2013-03-16 01:32:00,50.2,15.7,29.64,NE,45,0.0,0.0,25,0.00,CLR,,0.00,WeatherDisplay:10.37,2013-03-16 07:32:00,
2013-03-16 01:37:00,50.0,15.5,29.63,NE,45,0.0,0.0,25,0.00,CLR,,0.00,WeatherDisplay:10.37,2013-03-16 07:37:00,
2013-03-16 01:42:00,49.6,15.2,29.64,NE,45,0.0,0.0,25,0.00,CLR,,0.00,WeatherDisplay:10.37,2013-03-16 07:42:00,
2013-03-16 01:47:00,49.5,15.0,29.64,NE,45,0.5,0.5,25,0.00,CLR,,0.00,WeatherDisplay:10.37,2013-03-16 07:47:00,
2013-03-16 01:52:00,49.5,15.0,29.64,NE,45,0.2,0.2,25,0.00,CLR,,0.00,WeatherDisplay:10.37,2013-03-16 07:52:00,
2013-03-16 01:57:00,49.3,14.9,29.64,NE,45,0.0,0.0,25,0.00,CLR,,0.00,WeatherDisplay:10.37,2013-03-16 07:57:00,
2013-03-16 02:03:00,49.1,14.7,29.64,ENE,68,0.0,0.0,25,0.00,CLR,,0.00,WeatherDisplay:10.37,2013-03-16 08:03:00,
2013-03-16 02:08:00,48.9,15.5,29.64,ENE,68,1.2,1.2,26,0.00,CLR,,0.00,WeatherDisplay:10.37,2013-03-16 08:08:00,
2013-03-16 02:13:00,48.6,16.0,29.64,ENE,68,0.0,0.0,27,0.00,CLR,,0.00,WeatherDisplay:10.37,2013-03-16 08:13:00,
2013-03-16 02:18:00,48.4,15.9,29.63,East,90,0.0,0.0,27,0.00,CLR,,0.00,WeatherDisplay:10.37,2013-03-16 08:18:00,
2013-03-16 02:23:00,48.2,15.7,29.64,East,90,0.0,0.0,27,0.00,CLR,,0.00,WeatherDisplay:10.37,2013-03-16 08:23:00,
2013-03-16 02:28:00,48.0,15.6,29.64,ENE,68,0.2,0.2,27,0.00,CLR,,0.00,WeatherDisplay:10.37,2013-03-16 08:28:00,
2013-03-16 02:33:00,47.8,15.4,29.64,ENE,68,1.2,1.2,27,0.00,CLR,,0.00,WeatherDisplay:10.37,2013-03-16 08:33:00,
2013-03-16 02:38:00,48.0,16.4,29.64,ENE,68,0.2,0.2,28,0.00,CLR,,0.00,WeatherDisplay:10.37,2013-03-16 08:38:00,
2013-03-16 02:43:00,47.8,15.4,29.63,ESE,112,0.2,0.2,27,0.00,CLR,,0.00,WeatherDisplay:10.37,2013-03-16 08:43:00,
2013-03-16 02:48:00,47.8,16.3,29.63,ESE,112,0.0,0.0,28,0.00,CLR,,0.00,WeatherDisplay:10.37,2013-03-16 08:48:00,
2013-03-16 02:53:00,47.8,16.3,29.63,East,90,1.2,1.2,28,0.00,CLR,,0.00,WeatherDisplay:10.37,2013-03-16 08:53:00,
2013-03-16 02:58:00,48.0,16.4,29.63,ESE,112,0.5,0.5,28,0.00,CLR,,0.00,WeatherDisplay:10.37,2013-03-16 08:58:00,
2013-03-16 03:03:00,48.2,16.6,29.63,ESE,112,1.2,1.2,28,0.00,CLR,,0.00,WeatherDisplay:10.37,2013-03-16 09:03:00,
2013-03-16 03:08:00,48.6,16.9,29.63,ESE,112,1.2,1.2,28,0.00,CLR,,0.00,WeatherDisplay:10.37,2013-03-16 09:08:00,
2013-03-16 03:13:00,48.7,16.2,29.63,ESE,112,2.3,2.3,27,0.00,CLR,,0.00,WeatherDisplay:10.37,2013-03-16 09:13:00,
2013-03-16 03:18:00,48.9,16.4,29.63,ESE,112,1.2,1.2,27,0.00,CLR,,0.00,WeatherDisplay:10.37,2013-03-16 09:18:00,
2013-03-16 03:23:00,49.1,16.5,29.63,ESE,112,2.3,2.3,27,0.00,CLR,,0.00,WeatherDisplay:10.37,2013-03-16 09:23:00,
2013-03-16 03:28:00,49.3,16.7,29.63,ESE,112,2.3,2.3,27,0.00,CLR,,0.00,WeatherDisplay:10.37,2013-03-16 09:28:00,
2013-03-16 03:33:00,49.3,15.8,29.63,East,90,1.2,1.2,26,0.00,CLR,,0.00,WeatherDisplay:10.37,2013-03-16 09:33:00,
2013-03-16 03:38:00,49.3,15.8,29.63,ESE,112,1.2,1.2,26,0.00,CLR,,0.00,WeatherDisplay:10.37,2013-03-16 09:38:00,
2013-03-16 03:43:00,49.5,16.8,29.63,ESE,112,1.2,1.2,27,0.00,CLR,,0.00,WeatherDisplay:10.37,2013-03-16 09:43:00,
2013-03-16 03:48:00,49.6,17.0,29.62,East,90,1.2,1.2,27,0.00,CLR,,0.00,WeatherDisplay:10.37,2013-03-16 09:48:00,
2013-03-16 03:53:00,49.6,17.0,29.62,East,90,1.2,1.2,27,0.00,CLR,,0.00,WeatherDisplay:10.37,2013-03-16 09:53:00,
2013-03-16 03:58:00,49.6,17.0,29.62,ESE,112,1.2,1.2,27,0.00,CLR,,0.00,WeatherDisplay:10.37,2013-03-16 09:58:00,
2013-03-16 04:03:00,49.6,17.0,29.62,ESE,112,0.7,0.7,27,0.00,CLR,,0.00,WeatherDisplay:10.37,2013-03-16 10:03:00,
2013-03-16 04:08:00,49.6,17.0,29.62,East,90,1.2,1.2,27,0.00,CLR,,0.00,WeatherDisplay:10.37,2013-03-16 10:08:00,
2013-03-16 04:13:00,49.5,16.8,29.62,East,90,1.2,1.2,27,0.00,CLR,,0.00,WeatherDisplay:10.37,2013-03-16 10:13:00,
2013-03-16 04:18:00,49.3,16.7,29.62,ESE,112,0.0,0.9,27,0.00,CLR,,0.00,WeatherDisplay:10.37,2013-03-16 10:18:00,
2013-03-16 04:23:00,49.3,16.7,29.62,ESE,112,0.2,0.2,27,0.00,CLR,,0.00,WeatherDisplay:10.37,2013-03-16 10:23:00,
2013-03-16 04:28:00,49.1,16.5,29.62,East,90,1.4,1.4,27,0.00,CLR,,0.00,WeatherDisplay:10.37,2013-03-16 10:28:00,
2013-03-16 04:33:00,49.3,17.5,29.62,ESE,112,1.4,1.4,28,0.00,CLR,,0.00,WeatherDisplay:10.37,2013-03-16 10:33:00,
2013-03-16 04:38:00,49.3,17.5,29.62,ESE,112,0.5,0.5,28,0.00,CLR,,0.00,WeatherDisplay:10.37,2013-03-16 10:38:00,
2013-03-16 04:43:00,49.3,17.5,29.61,ESE,112,0.2,0.2,28,0.00,CLR,,0.00,WeatherDisplay:10.37,2013-03-16 10:43:00,
2013-03-16 04:48:00,49.3,16.7,29.62,SE,135,0.2,0.2,27,0.00,CLR,,0.00,WeatherDisplay:10.37,2013-03-16 10:48:00,
2013-03-16 04:53:00,49.1,16.5,29.62,ESE,112,1.2,1.2,27,0.00,CLR,,0.00,WeatherDisplay:10.37,2013-03-16 10:53:00,
2013-03-16 04:58:00,48.9,17.2,29.62,ESE,112,0.5,0.5,28,0.00,CLR,,0.00,WeatherDisplay:10.37,2013-03-16 10:58:00,
2013-03-16 05:03:00,48.9,17.2,29.62,ESE,112,0.5,0.5,28,0.00,CLR,,0.00,WeatherDisplay:10.37,2013-03-16 11:03:00,
2013-03-16 05:08:00,48.9,17.2,29.62,ESE,112,0.0,0.0,28,0.00,CLR,,0.00,WeatherDisplay:10.37,2013-03-16 11:08:00,
2013-03-16 05:13:00,48.7,17.0,29.62,ESE,112,0.0,0.0,28,0.00,CLR,,0.00,WeatherDisplay:10.37,2013-03-16 11:13:00,
2013-03-16 05:18:00,48.6,16.9,29.62,ESE,112,0.0,0.0,28,0.00,CLR,,0.00,WeatherDisplay:10.37,2013-03-16 11:18:00,
2013-03-16 05:23:00,48.4,17.5,29.62,ESE,112,1.2,1.2,29,0.00,CLR,,0.00,WeatherDisplay:10.37,2013-03-16 11:23:00,
2013-03-16 05:28:00,48.4,17.5,29.62,ESE,112,1.8,1.8,29,0.00,CLR,,0.00,WeatherDisplay:10.37,2013-03-16 11:28:00,
2013-03-16 05:33:00,48.6,17.7,29.62,ESE,112,1.6,1.6,29,0.00,CLR,,0.00,WeatherDisplay:10.37,2013-03-16 11:33:00,
2013-03-16 05:38:00,48.6,17.7,29.62,SE,135,1.2,1.6,29,0.00,CLR,,0.00,WeatherDisplay:10.37,2013-03-16 11:38:00,
2013-03-16 05:43:00,48.6,17.7,29.62,ESE,112,1.2,1.2,29,0.00,CLR,,0.00,WeatherDisplay:10.37,2013-03-16 11:43:00,
2013-03-16 05:48:00,48.6,17.7,29.62,ESE,112,1.2,1.2,29,0.00,CLR,,0.00,WeatherDisplay:10.37,2013-03-16 11:48:00,
2013-03-16 05:53:00,48.6,17.7,29.62,East,90,0.5,0.5,29,0.00,CLR,,0.00,WeatherDisplay:10.37,2013-03-16 11:53:00,
2013-03-16 05:58:00,48.6,17.7,29.62,East,90,1.2,1.2,29,0.00,CLR,,0.00,WeatherDisplay:10.37,2013-03-16 11:58:00,
2013-03-16 06:03:00,48.9,18.8,29.62,ESE,112,1.2,1.2,30,0.00,CLR,,0.00,WeatherDisplay:10.37,2013-03-16 12:03:00,
2013-03-16 06:08:00,49.1,19.0,29.62,ESE,112,0.5,0.5,30,0.00,CLR,,0.00,WeatherDisplay:10.37,2013-03-16 12:08:00,
2013-03-16 06:13:00,49.1,18.2,29.62,ESE,112,1.4,1.4,29,0.00,CLR,,0.00,WeatherDisplay:10.37,2013-03-16 12:13:00,
2013-03-16 06:18:00,48.9,18.0,29.62,ESE,112,0.5,0.5,29,0.00,CLR,,0.00,WeatherDisplay:10.37,2013-03-16 12:18:00,
2013-03-16 06:23:00,48.9,18.8,29.62,ESE,112,0.5,0.5,30,0.00,CLR,,0.00,WeatherDisplay:10.37,2013-03-16 12:23:00,
2013-03-16 06:28:00,48.9,18.8,29.62,ESE,112,1.2,1.2,30,0.00,CLR,,0.00,WeatherDisplay:10.37,2013-03-16 12:28:00,
2013-03-16 06:33:00,48.9,18.8,29.62,ESE,112,0.2,0.2,30,0.00,CLR,,0.00,WeatherDisplay:10.37,2013-03-16 12:33:00,
2013-03-16 06:38:00,48.6,17.7,29.62,ESE,112,0.5,0.5,29,0.00,CLR,,0.00,WeatherDisplay:10.37,2013-03-16 12:38:00,
2013-03-16 06:43:00,48.4,17.5,29.62,ESE,112,1.2,1.2,29,0.00,CLR,,0.00,WeatherDisplay:10.37,2013-03-16 12:43:00,
2013-03-16 06:48:00,48.0,18.0,29.62,East,90,1.2,1.2,30,0.00,CLR,,0.00,WeatherDisplay:10.37,2013-03-16 12:48:00,
2013-03-16 06:53:00,47.8,17.9,29.62,ESE,112,1.2,1.2,30,0.00,CLR,,0.00,WeatherDisplay:10.37,2013-03-16 12:53:00,
2013-03-16 06:58:00,47.8,18.6,29.62,East,90,0.5,0.5,31,0.00,CLR,,0.00,WeatherDisplay:10.37,2013-03-16 12:58:00,
2013-03-16 07:03:00,47.8,18.6,29.62,East,90,1.2,1.2,31,0.00,CLR,,0.00,WeatherDisplay:10.37,2013-03-16 13:03:00,
2013-03-16 07:08:00,47.8,18.6,29.62,East,90,1.2,1.2,31,0.00,CLR,,0.00,WeatherDisplay:10.37,2013-03-16 13:08:00,
2013-03-16 07:13:00,47.8,19.4,29.62,ESE,112,1.2,1.2,32,0.00,CLR,,0.00,WeatherDisplay:10.37,2013-03-16 13:13:00,
2013-03-16 07:18:00,48.0,19.5,29.62,ESE,112,1.2,1.2,32,0.00,CLR,,0.00,WeatherDisplay:10.37,2013-03-16 13:18:00,
2013-03-16 07:23:00,48.0,19.5,29.62,ESE,112,0.5,0.5,32,0.00,CLR,,0.00,WeatherDisplay:10.37,2013-03-16 13:23:00,
2013-03-16 07:28:00,48.0,18.8,29.61,ESE,112,1.2,1.2,31,0.00,CLR,,0.00,WeatherDisplay:10.37,2013-03-16 13:28:00,
2013-03-16 07:33:00,48.0,18.8,29.62,SE,135,1.2,1.8,31,0.00,CLR,,0.00,WeatherDisplay:10.37,2013-03-16 13:33:00,
2013-03-16 07:38:00,48.0,19.5,29.62,East,90,0.2,0.2,32,0.00,CLR,,0.00,WeatherDisplay:10.37,2013-03-16 13:38:00,
2013-03-16 07:43:00,48.2,19.7,29.62,ESE,112,1.2,1.2,32,0.00,CLR,,0.00,WeatherDisplay:10.37,2013-03-16 13:43:00,
2013-03-16 07:48:00,48.6,20.0,29.62,ESE,112,1.2,1.2,32,0.00,CLR,,0.00,WeatherDisplay:10.37,2013-03-16 13:48:00,
2013-03-16 07:53:00,48.6,20.0,29.61,ESE,112,1.2,1.2,32,0.00,CLR,,0.00,WeatherDisplay:10.37,2013-03-16 13:53:00,
2013-03-16 07:58:00,48.7,20.2,29.61,ESE,112,2.3,2.3,32,0.00,CLR,,0.00,WeatherDisplay:10.37,2013-03-16 13:58:00,
2013-03-16 08:03:00,48.9,20.3,29.62,ESE,112,0.5,0.5,32,0.00,CLR,,0.00,WeatherDisplay:10.37,2013-03-16 14:03:00,
2013-03-16 08:08:00,49.5,20.8,29.62,East,90,1.2,1.2,32,0.00,CLR,,0.00,WeatherDisplay:10.37,2013-03-16 14:08:00,
2013-03-16 08:13:00,50.2,21.4,29.62,SW,225,0.5,0.5,32,0.00,CLR,,0.00,WeatherDisplay:10.37,2013-03-16 14:13:00,
2013-03-16 08:18:00,50.4,20.8,29.62,ESE,112,1.2,1.2,31,0.00,CLR,,0.00,WeatherDisplay:10.37,2013-03-16 14:18:00,
2013-03-16 08:23:00,50.7,21.1,29.62,SE,135,1.2,1.2,31,0.00,CLR,,0.00,WeatherDisplay:10.37,2013-03-16 14:23:00,
2013-03-16 08:28:00,51.4,21.8,29.62,ESE,112,1.6,1.6,31,0.00,CLR,,0.00,WeatherDisplay:10.37,2013-03-16 14:28:00,
2013-03-16 08:33:00,52.2,22.4,29.62,ESE,112,2.3,2.3,31,0.00,CLR,,0.00,WeatherDisplay:10.37,2013-03-16 14:33:00,
2013-03-16 08:38:00,52.9,22.2,29.62,ESE,112,1.6,1.6,30,0.00,CLR,,0.00,WeatherDisplay:10.37,2013-03-16 14:38:00,
2013-03-16 08:43:00,53.8,23.0,29.62,SSE,158,1.8,1.8,30,0.00,CLR,,0.00,WeatherDisplay:10.37,2013-03-16 14:43:00,
2013-03-16 08:48:00,54.3,23.5,29.62,ESE,112,1.2,1.6,30,0.00,CLR,,0.00,WeatherDisplay:10.37,2013-03-16 14:48:00,
2013-03-16 08:53:00,55.0,23.3,29.62,ESE,112,2.3,2.3,29,0.00,CLR,,0.00,WeatherDisplay:10.37,2013-03-16 14:53:00,
2013-03-16 08:58:00,55.6,23.0,29.62,SSE,158,4.6,4.6,28,0.00,CLR,,0.00,WeatherDisplay:10.37,2013-03-16 14:58:00,
2013-03-16 09:03:00,56.3,23.6,29.62,ESE,112,2.3,2.3,28,0.00,CLR,,0.00,WeatherDisplay:10.37,2013-03-16 15:03:00,
2013-03-16 09:08:00,56.8,23.2,29.62,SSE,158,2.9,2.9,27,0.00,CLR,,0.00,WeatherDisplay:10.37,2013-03-16 15:08:00,
2013-03-16 09:13:00,57.6,22.9,29.63,SSW,202,8.1,8.1,26,0.00,CLR,,0.00,WeatherDisplay:10.37,2013-03-16 15:13:00,
2013-03-16 09:18:00,58.1,22.4,29.63,ESE,112,4.7,4.7,25,0.00,CLR,,0.00,WeatherDisplay:10.37,2013-03-16 15:18:00,
2013-03-16 09:23:00,58.5,22.7,29.63,SSE,158,2.3,2.3,25,0.00,CLR,,0.00,WeatherDisplay:10.37,2013-03-16 15:23:00,
2013-03-16 09:28:00,59.0,23.2,29.63,South,180,4.6,4.6,25,0.00,CLR,,0.00,WeatherDisplay:10.37,2013-03-16 15:28:00,
2013-03-16 09:33:00,59.2,23.3,29.63,SSE,158,5.2,5.2,25,0.00,CLR,,0.00,WeatherDisplay:10.37,2013-03-16 15:33:00,
2013-03-16 09:38:00,59.7,23.8,29.63,SSE,158,2.9,2.9,25,0.00,CLR,,0.00,WeatherDisplay:10.37,2013-03-16 15:38:00,
2013-03-16 09:43:00,60.1,24.1,29.63,SSW,202,5.8,5.8,25,0.00,CLR,,0.00,WeatherDisplay:10.37,2013-03-16 15:43:00,
2013-03-16 09:48:00,60.4,24.4,29.63,SSE,158,3.5,3.5,25,0.00,CLR,,0.00,WeatherDisplay:10.37,2013-03-16 15:48:00,
2013-03-16 09:53:00,60.6,23.6,29.63,SE,135,4.0,4.0,24,0.00,CLR,,0.00,WeatherDisplay:10.37,2013-03-16 15:53:00,
2013-03-16 09:58:00,60.8,23.7,29.63,SW,225,2.9,2.9,24,0.00,CLR,,0.00,WeatherDisplay:10.37,2013-03-16 15:58:00,
2013-03-16 10:03:00,61.0,23.9,29.63,SSW,202,4.6,4.6,24,0.00,CLR,,0.00,WeatherDisplay:10.37,2013-03-16 16:03:00,
2013-03-16 10:08:00,61.5,23.3,29.63,SSW,202,5.8,5.8,23,0.00,CLR,,0.00,WeatherDisplay:10.37,2013-03-16 16:08:00,
2013-03-16 10:13:00,61.7,23.5,29.63,SSW,202,2.4,2.4,23,0.00,CLR,,0.00,WeatherDisplay:10.37,2013-03-16 16:13:00,
2013-03-16 10:18:00,62.1,25.8,29.63,WSW,248,2.3,3.3,25,0.00,CLR,,0.00,WeatherDisplay:10.37,2013-03-16 16:18:00,
2013-03-16 10:23:00,62.4,25.1,29.63,WSW,248,4.6,4.6,24,0.00,CLR,,0.00,WeatherDisplay:10.37,2013-03-16 16:23:00,
2013-03-16 10:28:00,62.6,24.2,29.63,SW,225,0.5,0.5,23,0.00,CLR,,0.00,WeatherDisplay:10.37,2013-03-16 16:28:00,
2013-03-16 10:33:00,63.1,24.7,29.63,South,180,5.2,5.2,23,0.00,CLR,,0.00,WeatherDisplay:10.37,2013-03-16 16:33:00,
2013-03-16 10:38:00,63.7,25.1,29.63,SSE,158,3.5,3.5,23,0.00,CLR,,0.00,WeatherDisplay:10.37,2013-03-16 16:38:00,
2013-03-16 10:43:00,63.9,25.3,29.63,South,180,4.6,4.6,23,0.00,CLR,,0.00,WeatherDisplay:10.37,2013-03-16 16:43:00,
2013-03-16 10:48:00,64.2,25.6,29.63,SSW,202,3.5,3.5,23,0.00,CLR,,0.00,WeatherDisplay:10.37,2013-03-16 16:48:00,
2013-03-16 10:53:00,64.6,25.9,29.63,South,180,4.6,4.6,23,0.00,CLR,,0.00,WeatherDisplay:10.37,2013-03-16 16:53:00,
2013-03-16 10:58:00,65.3,26.5,29.63,West,270,3.5,3.5,23,0.00,CLR,,0.00,WeatherDisplay:10.37,2013-03-16 16:58:00,
2013-03-16 11:03:00,65.7,25.7,29.63,South,180,2.4,2.4,22,0.00,CLR,,0.00,WeatherDisplay:10.37,2013-03-16 17:03:00,
2013-03-16 11:08:00,65.7,25.7,29.63,South,180,3.1,3.1,22,0.00,CLR,,0.00,WeatherDisplay:10.37,2013-03-16 17:08:00,
2013-03-16 11:13:00,65.7,25.7,29.63,West,270,2.3,2.3,22,0.00,CLR,,0.00,WeatherDisplay:10.37,2013-03-16 17:13:00,
2013-03-16 11:18:00,65.7,25.7,29.63,SSE,158,6.9,6.9,22,0.00,CLR,,0.00,WeatherDisplay:10.37,2013-03-16 17:18:00,
2013-03-16 11:23:00,66.0,26.0,29.63,SE,135,4.6,4.6,22,0.00,CLR,,0.00,WeatherDisplay:10.37,2013-03-16 17:23:00,
2013-03-16 11:28:00,66.7,26.6,29.63,SW,225,4.9,4.9,22,0.00,CLR,,0.00,WeatherDisplay:10.37,2013-03-16 17:28:00,
2013-03-16 11:33:00,67.1,25.8,29.63,SW,225,5.8,5.8,21,0.00,CLR,,0.00,WeatherDisplay:10.37,2013-03-16 17:33:00,
2013-03-16 11:38:00,67.1,25.8,29.63,SW,225,3.5,3.5,21,0.00,CLR,,0.00,WeatherDisplay:10.37,2013-03-16 17:38:00,
2013-03-16 11:43:00,67.3,26.0,29.63,South,180,2.3,2.3,21,0.00,CLR,,0.00,WeatherDisplay:10.37,2013-03-16 17:43:00,
2013-03-16 11:48:00,67.6,26.3,29.62,WSW,248,2.4,2.4,21,0.00,CLR,,0.00,WeatherDisplay:10.37,2013-03-16 17:48:00,
2013-03-16 11:53:00,67.8,26.4,29.62,SW,225,4.6,4.6,21,0.00,CLR,,0.00,WeatherDisplay:10.37,2013-03-16 17:53:00,
2013-03-16 11:58:00,68.2,26.7,29.62,SSE,158,2.3,2.3,21,0.00,CLR,,0.00,WeatherDisplay:10.37,2013-03-16 17:58:00,
2013-03-16 12:03:00,69.1,27.5,29.61,SW,225,2.3,2.3,21,0.00,CLR,,0.00,WeatherDisplay:10.37,2013-03-16 18:03:00,
2013-03-16 12:08:00,69.4,27.8,29.62,SW,225,4.5,4.5,21,0.00,CLR,,0.00,WeatherDisplay:10.37,2013-03-16 18:08:00,
2013-03-16 12:13:00,69.4,26.6,29.61,SSW,202,5.8,5.8,20,0.00,CLR,,0.00,WeatherDisplay:10.37,2013-03-16 18:13:00,
2013-03-16 12:18:00,69.8,28.1,29.61,SW,225,5.8,5.8,21,0.00,CLR,,0.00,WeatherDisplay:10.37,2013-03-16 18:18:00,
2013-03-16 12:23:00,70.5,28.7,29.61,ENE,68,6.9,6.9,21,0.00,CLR,,0.00,WeatherDisplay:10.37,2013-03-16 18:23:00,
2013-03-16 12:28:00,71.1,27.9,29.61,East,90,2.3,2.3,20,0.00,CLR,,0.00,WeatherDisplay:10.37,2013-03-16 18:28:00,
2013-03-16 12:33:00,71.6,27.1,29.61,South,180,2.6,2.6,19,0.00,CLR,,0.00,WeatherDisplay:10.37,2013-03-16 18:33:00,
2013-03-16 12:38:00,71.6,27.1,29.60,NE,45,2.9,2.9,19,0.00,CLR,,0.00,WeatherDisplay:10.37,2013-03-16 18:38:00,
2013-03-16 12:43:00,72.3,27.7,29.60,SSW,202,5.8,5.8,19,0.00,CLR,,0.00,WeatherDisplay:10.37,2013-03-16 18:43:00,
2013-03-16 12:48:00,73.2,28.5,29.60,ESE,112,2.9,2.9,19,0.00,CLR,,0.00,WeatherDisplay:10.37,2013-03-16 18:48:00,
2013-03-16 12:53:00,74.1,27.9,29.60,ESE,112,6.9,6.9,18,0.00,CLR,,0.00,WeatherDisplay:10.37,2013-03-16 18:53:00,
2013-03-16 12:58:00,74.8,28.5,29.59,SE,135,4.6,4.6,18,0.00,CLR,,0.00,WeatherDisplay:10.37,2013-03-16 18:58:00,
2013-03-16 13:03:00,75.0,28.6,29.59,SE,135,4.6,4.6,18,0.00,CLR,,0.00,WeatherDisplay:10.37,2013-03-16 19:03:00,
2013-03-16 13:08:00,75.7,29.2,29.59,ENE,68,4.6,4.6,18,0.00,CLR,,0.00,WeatherDisplay:10.37,2013-03-16 19:08:00,
2013-03-16 13:13:00,76.1,28.1,29.58,East,90,4.3,4.3,17,0.00,CLR,,0.00,WeatherDisplay:10.37,2013-03-16 19:13:00,
2013-03-16 13:18:00,76.1,28.1,29.58,South,180,4.6,4.6,17,0.00,CLR,,0.00,WeatherDisplay:10.37,2013-03-16 19:18:00,
2013-03-16 13:23:00,75.4,27.5,29.58,East,90,3.5,3.5,17,0.00,CLR,,0.00,WeatherDisplay:10.37,2013-03-16 19:23:00,
2013-03-16 13:28:00,74.5,26.8,29.58,SW,225,1.6,1.6,17,0.00,CLR,,0.00,WeatherDisplay:10.37,2013-03-16 19:28:00,
2013-03-16 13:33:00,74.5,26.8,29.57,South,180,2.3,2.3,17,0.00,CLR,,0.00,WeatherDisplay:10.37,2013-03-16 19:33:00,
2013-03-16 13:38:00,73.9,24.9,29.57,West,270,5.8,5.8,16,0.00,CLR,,0.00,WeatherDisplay:10.37,2013-03-16 19:38:00,
2013-03-16 13:43:00,73.4,25.9,29.57,South,180,4.6,4.6,17,0.00,CLR,,0.00,WeatherDisplay:10.37,2013-03-16 19:43:00,
2013-03-16 13:48:00,73.8,26.2,29.56,WSW,248,5.8,5.8,17,0.00,CLR,,0.00,WeatherDisplay:10.37,2013-03-16 19:48:00,
2013-03-16 13:53:00,74.5,26.8,29.56,South,180,8.1,8.1,17,0.00,CLR,,0.00,WeatherDisplay:10.37,2013-03-16 19:53:00,
2013-03-16 13:59:00,75.2,27.4,29.56,SSW,202,4.6,4.6,17,0.00,CLR,,0.00,WeatherDisplay:10.37,2013-03-16 19:59:00,
2013-03-16 14:04:00,75.9,24.9,29.56,WSW,248,6.9,6.9,15,0.00,CLR,,0.00,WeatherDisplay:10.37,2013-03-16 20:04:00,
2013-03-16 14:09:00,75.6,26.2,29.55,WSW,248,5.8,5.8,16,0.00,CLR,,0.00,WeatherDisplay:10.37,2013-03-16 20:09:00,
2013-03-16 14:14:00,75.6,26.2,29.55,SSW,202,5.8,5.8,16,0.00,CLR,,0.00,WeatherDisplay:10.37,2013-03-16 20:14:00,
2013-03-16 14:19:00,74.8,25.6,29.55,SSW,202,9.2,9.2,16,0.00,CLR,,0.00,WeatherDisplay:10.37,2013-03-16 20:19:00,
2013-03-16 14:24:00,74.1,25.0,29.54,WSW,248,9.2,9.2,16,0.00,CLR,,0.00,WeatherDisplay:10.37,2013-03-16 20:24:00,
2013-03-16 14:29:00,73.6,24.6,29.54,SW,225,4.6,4.6,16,0.00,CLR,,0.00,WeatherDisplay:10.37,2013-03-16 20:29:00,
2013-03-16 14:34:00,73.8,24.7,29.54,South,180,4.7,4.7,16,0.00,CLR,,0.00,WeatherDisplay:10.37,2013-03-16 20:34:00,
2013-03-16 14:39:00,73.9,24.9,29.54,West,270,4.6,4.7,16,0.00,CLR,,0.00,WeatherDisplay:10.37,2013-03-16 20:39:00,
2013-03-16 14:44:00,73.2,24.3,29.54,SW,225,10.4,10.4,16,0.00,CLR,,0.00,WeatherDisplay:10.37,2013-03-16 20:44:00,
2013-03-16 14:49:00,72.3,23.6,29.53,South,180,7.1,7.1,16,0.00,CLR,,0.00,WeatherDisplay:10.37,2013-03-16 20:49:00,
2013-03-16 14:54:00,72.1,24.9,29.53,South,180,4.7,4.7,17,0.00,CLR,,0.00,WeatherDisplay:10.37,2013-03-16 20:54:00,
2013-03-16 14:59:00,72.3,25.0,29.53,South,180,2.6,2.6,17,0.00,CLR,,0.00,WeatherDisplay:10.37,2013-03-16 20:59:00,
2013-03-16 15:04:00,72.5,25.2,29.53,SW,225,5.8,5.8,17,0.00,CLR,,0.00,WeatherDisplay:10.37,2013-03-16 21:04:00,
2013-03-16 15:09:00,72.1,24.9,29.53,South,180,3.5,3.5,17,0.00,CLR,,0.00,WeatherDisplay:10.37,2013-03-16 21:09:00,
2013-03-16 15:14:00,72.0,24.7,29.53,SE,135,4.0,4.0,17,0.00,CLR,,0.00,WeatherDisplay:10.37,2013-03-16 21:14:00,
2013-03-16 15:19:00,71.8,24.6,29.52,WSW,248,5.8,5.8,17,0.00,CLR,,0.00,WeatherDisplay:10.37,2013-03-16 21:19:00,
2013-03-16 15:24:00,71.4,24.3,29.53,SW,225,7.1,7.1,17,0.00,CLR,,0.00,WeatherDisplay:10.37,2013-03-16 21:24:00,
2013-03-16 15:29:00,70.7,23.7,29.53,SW,225,6.2,6.2,17,0.00,CLR,,0.00,WeatherDisplay:10.37,2013-03-16 21:29:00,
2013-03-16 15:34:00,70.0,23.1,29.52,SW,225,4.7,4.7,17,0.00,CLR,,0.00,WeatherDisplay:10.37,2013-03-16 21:34:00,
2013-03-16 15:39:00,69.6,24.2,29.52,SSW,202,5.8,5.8,18,0.00,CLR,,0.00,WeatherDisplay:10.37,2013-03-16 21:39:00,
2013-03-16 15:44:00,69.8,24.3,29.52,SW,225,4.6,4.6,18,0.00,CLR,,0.00,WeatherDisplay:10.37,2013-03-16 21:44:00,
2013-03-16 15:49:00,70.0,24.5,29.52,SSW,202,4.6,4.6,18,0.00,CLR,,0.00,WeatherDisplay:10.37,2013-03-16 21:49:00,
2013-03-16 15:54:00,70.2,24.6,29.52,SSE,158,6.2,6.2,18,0.00,CLR,,0.00,WeatherDisplay:10.37,2013-03-16 21:54:00,
2013-03-16 15:59:00,70.2,24.6,29.52,South,180,4.7,4.7,18,0.00,CLR,,0.00,WeatherDisplay:10.37,2013-03-16 21:59:00,
2013-03-16 16:04:00,70.5,24.9,29.51,SSW,202,4.6,4.6,18,0.00,CLR,,0.00,WeatherDisplay:10.37,2013-03-16 22:04:00,
2013-03-16 16:09:00,70.9,25.2,29.51,SSW,202,4.6,4.6,18,0.00,CLR,,0.00,WeatherDisplay:10.37,2013-03-16 22:09:00,
2013-03-16 16:14:00,71.6,24.4,29.51,SW,225,5.8,5.8,17,0.00,CLR,,0.00,WeatherDisplay:10.37,2013-03-16 22:14:00,
2013-03-16 16:19:00,72.0,24.7,29.50,SW,225,4.6,4.6,17,0.00,CLR,,0.00,WeatherDisplay:10.37,2013-03-16 22:19:00,
2013-03-16 16:24:00,71.6,23.0,29.50,SSE,158,4.6,4.6,16,0.00,CLR,,0.00,WeatherDisplay:10.37,2013-03-16 22:24:00,
2013-03-16 16:29:00,71.6,23.0,29.50,SW,225,5.2,5.2,16,0.00,CLR,,0.00,WeatherDisplay:10.37,2013-03-16 22:29:00,
2013-03-16 16:34:00,71.6,23.0,29.50,WSW,248,4.6,9.0,16,0.00,CLR,,0.00,WeatherDisplay:10.37,2013-03-16 22:34:00,
2013-03-16 16:39:00,71.6,23.0,29.49,SW,225,5.9,5.9,16,0.00,CLR,,0.00,WeatherDisplay:10.37,2013-03-16 22:39:00,
2013-03-16 16:44:00,71.6,23.0,29.49,SSW,202,9.2,9.2,16,0.00,CLR,,0.00,WeatherDisplay:10.37,2013-03-16 22:44:00,
2013-03-16 16:49:00,71.4,22.8,29.49,SSW,202,5.8,5.8,16,0.00,CLR,,0.00,WeatherDisplay:10.37,2013-03-16 22:49:00,
2013-03-16 16:54:00,71.4,22.8,29.49,WSW,248,8.1,8.1,16,0.00,CLR,,0.00,WeatherDisplay:10.37,2013-03-16 22:54:00,
2013-03-16 16:59:00,71.2,22.7,29.49,SSW,202,9.2,9.2,16,0.00,CLR,,0.00,WeatherDisplay:10.37,2013-03-16 22:59:00,
2013-03-16 17:04:00,72.0,23.3,29.49,SW,225,9.2,9.2,16,0.00,CLR,,0.00,WeatherDisplay:10.37,2013-03-16 23:04:00,
2013-03-16 17:09:00,71.8,23.1,29.49,WSW,248,6.9,6.9,16,0.00,CLR,,0.00,WeatherDisplay:10.37,2013-03-16 23:09:00,
2013-03-16 17:14:00,71.2,22.7,29.48,WSW,248,4.6,4.6,16,0.00,CLR,,0.00,WeatherDisplay:10.37,2013-03-16 23:14:00,
2013-03-16 17:19:00,70.9,22.4,29.48,WSW,248,6.9,6.9,16,0.00,CLR,,0.00,WeatherDisplay:10.37,2013-03-16 23:19:00,
2013-03-16 17:24:00,70.7,22.3,29.48,West,270,5.8,5.8,16,0.00,CLR,,0.00,WeatherDisplay:10.37,2013-03-16 23:24:00,
2013-03-16 17:29:00,70.5,23.6,29.48,SW,225,6.9,6.9,17,0.00,CLR,,0.00,WeatherDisplay:10.37,2013-03-16 23:29:00,
2013-03-16 17:34:00,70.5,22.1,29.48,West,270,5.8,5.8,16,0.00,CLR,,0.00,WeatherDisplay:10.37,2013-03-16 23:34:00,
2013-03-16 17:39:00,70.9,22.4,29.48,WSW,248,6.0,6.0,16,0.00,CLR,,0.00,WeatherDisplay:10.37,2013-03-16 23:39:00,
2013-03-16 17:44:00,70.9,22.4,29.48,WSW,248,6.9,6.9,16,0.00,CLR,,0.00,WeatherDisplay:10.37,2013-03-16 23:44:00,
2013-03-16 17:49:00,71.4,21.3,29.48,WSW,248,8.1,8.1,15,0.00,CLR,,0.00,WeatherDisplay:10.37,2013-03-16 23:49:00,
2013-03-16 17:54:00,71.2,22.7,29.48,SW,225,9.4,9.4,16,0.00,CLR,,0.00,WeatherDisplay:10.37,2013-03-16 23:54:00,
2013-03-16 17:59:00,71.2,22.7,29.48,WSW,248,9.2,9.2,16,0.00,CLR,,0.00,WeatherDisplay:10.37,2013-03-16 23:59:00,
2013-03-16 18:04:00,71.1,22.6,29.48,SW,225,6.4,6.4,16,0.00,CLR,,0.00,WeatherDisplay:10.37,2013-03-17 00:04:00,
2013-03-16 18:09:00,70.5,22.1,29.48,WSW,248,3.5,4.7,16,0.00,CLR,,0.00,WeatherDisplay:10.37,2013-03-17 00:09:00,
2013-03-16 18:14:00,70.2,21.8,29.48,West,270,5.8,5.8,16,0.00,CLR,,0.00,WeatherDisplay:10.37,2013-03-17 00:14:00,
2013-03-16 18:19:00,69.8,21.5,29.48,West,270,5.8,5.8,16,0.00,CLR,,0.00,WeatherDisplay:10.37,2013-03-17 00:19:00,
2013-03-16 18:24:00,69.4,21.2,29.48,NW,315,4.7,4.7,16,0.00,CLR,,0.00,WeatherDisplay:10.37,2013-03-17 00:24:00,
2013-03-16 18:29:00,69.4,21.2,29.48,NW,315,4.6,4.6,16,0.00,CLR,,0.00,WeatherDisplay:10.37,2013-03-17 00:29:00,
2013-03-16 18:34:00,69.1,21.0,29.48,West,270,6.9,6.9,16,0.00,CLR,,0.00,WeatherDisplay:10.37,2013-03-17 00:34:00,
2013-03-16 18:39:00,69.1,21.0,29.48,West,270,4.6,4.6,16,0.00,CLR,,0.00,WeatherDisplay:10.37,2013-03-17 00:39:00,
2013-03-16 18:44:00,68.9,20.8,29.48,West,270,5.8,5.8,16,0.00,CLR,,0.00,WeatherDisplay:10.37,2013-03-17 00:44:00,
2013-03-16 18:49:00,68.7,20.7,29.48,West,270,2.3,2.3,16,0.00,CLR,,0.00,WeatherDisplay:10.37,2013-03-17 00:49:00,
2013-03-16 18:54:00,68.5,20.5,29.48,West,270,1.2,1.2,16,0.00,CLR,,0.00,WeatherDisplay:10.37,2013-03-17 00:54:00,
2013-03-16 18:59:00,68.2,20.2,29.48,NW,315,2.3,2.3,16,0.00,CLR,,0.00,WeatherDisplay:10.37,2013-03-17 00:59:00,
2013-03-16 19:04:00,68.0,20.1,29.49,NW,315,4.6,5.6,16,0.00,CLR,,0.00,WeatherDisplay:10.37,2013-03-17 01:04:00,
2013-03-16 19:09:00,67.3,23.6,29.50,WNW,292,6.9,6.9,19,0.00,CLR,,0.00,WeatherDisplay:10.37,2013-03-17 01:09:00,
2013-03-16 19:14:00,66.6,25.4,29.50,NW,315,6.9,6.9,21,0.00,CLR,,0.00,WeatherDisplay:10.37,2013-03-17 01:14:00,
2013-03-16 19:19:00,66.2,25.1,29.50,NNW,338,4.9,4.9,21,0.00,CLR,,0.00,WeatherDisplay:10.37,2013-03-17 01:19:00,
2013-03-16 19:24:00,65.7,25.7,29.50,WNW,292,5.8,5.8,22,0.00,CLR,,0.00,WeatherDisplay:10.37,2013-03-17 01:24:00,
2013-03-16 19:29:00,65.1,26.4,29.50,NW,315,8.1,8.1,23,0.00,CLR,,0.00,WeatherDisplay:10.37,2013-03-17 01:29:00,
2013-03-16 19:34:00,64.8,26.1,29.50,NW,315,4.6,4.6,23,0.00,CLR,,0.00,WeatherDisplay:10.37,2013-03-17 01:34:00,
2013-03-16 19:39:00,64.4,26.8,29.50,NNW,338,5.4,5.4,24,0.00,CLR,,0.00,WeatherDisplay:10.37,2013-03-17 01:39:00,
2013-03-16 19:44:00,64.0,27.5,29.50,NNW,338,9.2,9.2,25,0.00,CLR,,0.00,WeatherDisplay:10.37,2013-03-17 01:44:00,
2013-03-16 19:49:00,63.5,27.0,29.50,NW,315,10.4,10.4,25,0.00,CLR,,0.00,WeatherDisplay:10.37,2013-03-17 01:49:00,
2013-03-16 19:54:00,63.0,28.4,29.50,NW,315,10.5,10.5,27,0.00,CLR,,0.00,WeatherDisplay:10.37,2013-03-17 01:54:00,
2013-03-16 19:59:00,62.6,28.1,29.51,NNW,338,10.0,10.0,27,0.00,CLR,,0.00,WeatherDisplay:10.37,2013-03-17 01:59:00,
2013-03-16 20:04:00,62.2,28.7,29.51,NNW,338,9.9,9.9,28,0.00,CLR,,0.00,WeatherDisplay:10.37,2013-03-17 02:04:00,
2013-03-16 20:09:00,61.9,28.4,29.51,NNW,338,5.8,5.8,28,0.00,CLR,,0.00,WeatherDisplay:10.37,2013-03-17 02:09:00,
2013-03-16 20:14:00,61.7,28.2,29.51,NNW,338,5.8,5.8,28,0.00,CLR,,0.00,WeatherDisplay:10.37,2013-03-17 02:14:00,
2013-03-16 20:19:00,61.5,28.9,29.51,WNW,292,8.5,8.5,29,0.00,CLR,,0.00,WeatherDisplay:10.37,2013-03-17 02:19:00,
2013-03-16 20:24:00,61.2,28.6,29.52,WNW,292,6.9,6.9,29,0.00,CLR,,0.00,WeatherDisplay:10.37,2013-03-17 02:24:00,
2013-03-16 20:29:00,60.8,29.1,29.52,NNW,338,8.1,8.1,30,0.00,CLR,,0.00,WeatherDisplay:10.37,2013-03-17 02:29:00,
2013-03-16 20:34:00,60.8,29.1,29.52,North,0,4.9,4.9,30,0.00,CLR,,0.00,WeatherDisplay:10.37,2013-03-17 02:34:00,
2013-03-16 20:39:00,60.8,29.1,29.52,WNW,292,4.6,4.6,30,0.00,CLR,,0.00,WeatherDisplay:10.37,2013-03-17 02:39:00,
2013-03-16 20:44:00,60.8,29.1,29.52,NW,315,4.6,4.6,30,0.00,CLR,,0.00,WeatherDisplay:10.37,2013-03-17 02:44:00,
2013-03-16 20:49:00,60.8,29.1,29.52,NW,315,6.9,6.9,30,0.00,CLR,,0.00,WeatherDisplay:10.37,2013-03-17 02:49:00,
2013-03-16 20:54:00,60.8,29.1,29.52,WNW,292,8.1,8.1,30,0.00,CLR,,0.00,WeatherDisplay:10.37,2013-03-17 02:54:00,
2013-03-16 20:59:00,60.6,29.0,29.52,NW,315,5.8,5.8,30,0.00,CLR,,0.00,WeatherDisplay:10.37,2013-03-17 02:59:00,
2013-03-16 21:04:00,60.6,29.0,29.52,North,0,5.8,5.8,30,0.00,CLR,,0.00,WeatherDisplay:10.37,2013-03-17 03:04:00,
2013-03-16 21:09:00,60.6,28.2,29.53,ESE,112,5.8,5.8,29,0.00,CLR,,0.00,WeatherDisplay:10.37,2013-03-17 03:09:00,
2013-03-16 21:14:00,60.6,29.0,29.53,North,0,5.8,5.8,30,0.00,CLR,,0.00,WeatherDisplay:10.37,2013-03-17 03:14:00,
2013-03-16 21:19:00,60.4,28.8,29.53,North,0,4.6,4.6,30,0.00,CLR,,0.00,WeatherDisplay:10.37,2013-03-17 03:19:00,
2013-03-16 21:24:00,60.4,28.8,29.53,North,0,5.8,5.8,30,0.00,CLR,,0.00,WeatherDisplay:10.37,2013-03-17 03:24:00,
2013-03-16 21:29:00,60.4,28.8,29.53,NNE,22,4.6,4.6,30,0.00,CLR,,0.00,WeatherDisplay:10.37,2013-03-17 03:29:00,
2013-03-16 21:34:00,60.3,28.7,29.53,North,0,3.1,3.1,30,0.00,CLR,,0.00,WeatherDisplay:10.37,2013-03-17 03:34:00,
2013-03-16 21:39:00,60.1,28.5,29.53,North,0,4.7,4.7,30,0.00,CLR,,0.00,WeatherDisplay:10.37,2013-03-17 03:39:00,
2013-03-16 21:44:00,59.9,28.4,29.53,NE,45,1.2,0.0,30,0.00,CLR,,0.00,WeatherDisplay:10.37,2013-03-17 03:44:00,
2013-03-16 21:49:00,59.7,28.2,29.52,NW,315,1.6,1.6,30,0.00,CLR,,0.00,WeatherDisplay:10.37,2013-03-17 03:49:00,
2013-03-16 21:54:00,59.5,28.8,29.52,NNW,338,2.2,2.2,31,0.00,CLR,,0.00,WeatherDisplay:10.37,2013-03-17 03:54:00,
2013-03-16 21:59:00,59.5,28.0,29.52,East,90,4.6,4.6,30,0.00,CLR,,0.00,WeatherDisplay:10.37,2013-03-17 03:59:00,
2013-03-16 22:00:00,59.5,28.0,29.52,East,90,2.3,2.3,30,0.00,CLR,,0.00,WeatherDisplay:10.37,2013-03-17 04:00:00,
2013-03-16 22:05:00,59.5,28.8,29.53,NNW,338,3.5,3.5,31,0.00,CLR,,0.00,WeatherDisplay:10.37,2013-03-17 04:05:00,
2013-03-16 22:10:00,59.7,29.0,29.53,North,0,4.6,4.6,31,0.00,CLR,,0.00,WeatherDisplay:10.37,2013-03-17 04:10:00,
2013-03-16 22:15:00,59.7,29.0,29.54,NW,315,4.5,4.5,31,0.00,CLR,,0.00,WeatherDisplay:10.37,2013-03-17 04:15:00,
2013-03-16 22:20:00,59.7,29.0,29.55,NNW,338,3.5,3.5,31,0.00,CLR,,0.00,WeatherDisplay:10.37,2013-03-17 04:20:00,
2013-03-16 22:25:00,59.4,29.5,29.55,NW,315,3.5,3.5,32,0.00,CLR,,0.00,WeatherDisplay:10.37,2013-03-17 04:25:00,
2013-03-16 22:30:00,59.2,29.3,29.56,WNW,292,2.3,2.3,32,0.00,CLR,,0.00,WeatherDisplay:10.37,2013-03-17 04:30:00,
2013-03-16 22:35:00,59.0,29.9,29.56,NW,315,3.5,3.5,33,0.00,CLR,,0.00,WeatherDisplay:10.37,2013-03-17 04:35:00,
2013-03-16 22:40:00,58.6,29.6,29.57,SW,225,5.2,5.2,33,0.00,CLR,,0.00,WeatherDisplay:10.37,2013-03-17 04:40:00,
2013-03-16 22:45:00,58.6,30.3,29.58,NW,315,7.6,7.6,34,0.00,CLR,,0.00,WeatherDisplay:10.37,2013-03-17 04:45:00,
2013-03-16 22:50:00,57.9,31.8,29.58,NW,315,4.6,4.6,37,0.00,CLR,,0.00,WeatherDisplay:10.37,2013-03-17 04:50:00,
2013-03-16 22:55:00,56.8,32.8,29.58,NW,315,6.2,6.2,40,0.00,CLR,,0.00,WeatherDisplay:10.37,2013-03-17 04:55:00,
2013-03-16 23:00:00,56.1,32.7,29.59,NW,315,6.9,6.9,41,0.00,CLR,,0.00,WeatherDisplay:10.37,2013-03-17 05:00:00,
2013-03-16 23:05:00,55.6,32.8,29.59,WNW,292,8.1,8.1,42,0.00,CLR,,0.00,WeatherDisplay:10.37,2013-03-17 05:05:00,
2013-03-16 23:10:00,55.2,33.1,29.59,NNW,338,4.6,4.6,43,0.00,CLR,,0.00,WeatherDisplay:10.37,2013-03-17 05:10:00,
2013-03-16 23:15:00,54.9,33.3,29.59,WNW,292,5.4,5.4,44,0.00,CLR,,0.00,WeatherDisplay:10.37,2013-03-17 05:15:00,
2013-03-16 23:20:00,54.5,33.6,29.59,West,270,5.8,5.8,45,0.00,CLR,,0.00,WeatherDisplay:10.37,2013-03-17 05:20:00,
2013-03-16 23:25:00,54.3,32.8,29.59,North,0,4.6,4.6,44,0.00,CLR,,0.00,WeatherDisplay:10.37,2013-03-17 05:25:00,
2013-03-16 23:30:00,54.1,32.7,29.59,NW,315,2.3,2.3,44,0.00,CLR,,0.00,WeatherDisplay:10.37,2013-03-17 05:30:00,
2013-03-16 23:35:00,54.0,33.1,29.59,NW,315,4.7,4.7,45,0.00,CLR,,0.00,WeatherDisplay:10.37,2013-03-17 05:35:00,
2013-03-16 23:40:00,53.8,32.9,29.60,NNW,338,5.8,5.8,45,0.00,CLR,,0.00,WeatherDisplay:10.37,2013-03-17 05:40:00,
2013-03-16 23:45:00,53.6,32.2,29.59,NW,315,3.5,3.5,44,0.00,CLR,,0.00,WeatherDisplay:10.37,2013-03-17 05:45:00,
2013-03-16 23:50:00,53.6,32.2,29.59,NW,315,5.8,5.8,44,0.00,CLR,,0.00,WeatherDisplay:10.37,2013-03-17 05:50:00,
2013-03-16 23:55:00,53.6,32.2,29.59,WNW,292,3.5,3.5,44,0.00,CLR,,0.00,WeatherDisplay:10.37,2013-03-17 05:55:00,